Voltar ao catálogo

COSMOS 1711

GLONASS

AtivoNavegaçãoMEO
NORAD 16397·PAYLOAD·🇷🇺 Russia

Lançado Dec 24, 1985 de Baikonur Cosmodrome

Loading…

Próximas Passagens (próximas 24 horas)

TLE

EnvelhecendoSource: Space-Track

Época: Aug 29, 2026, 04:34 UTC

1 16397U 85118B   26241.19063991 -.00000037  00000-0  00000+0 0  9992
2 16397  66.0234 322.0376 0009818 188.2149 218.5344  2.13101405316319

Acompanhe COSMOS 1711 em tempo real com AllMySat

Download on the App Store